TimePST,TemperatureF,Dew PointF,Humidity,Sea Level PressureIn,VisibilityMPH,Wind Direction,Wind SpeedMPH,Gust SpeedMPH,PrecipitationIn,Events,Conditions,WindDirDegrees,DateUTC
6:00 AM,42.8,39.2,87,30.32,15.0,WSW,3.5,-,N/A,,Overcast,250,2013-02-11 14:00:00
7:00 AM,42.8,39.2,87,30.32,15.0,SW,3.5,-,N/A,,Overcast,230,2013-02-11 15:00:00
7:19 AM,-9999,-9999,N/A,-9999,15.0,SW,4.6,-,N/A,Rain,Light Rain,220,2013-02-11 15:19:00
8:00 AM,42.8,41.0,93,30.32,8.0,Calm,Calm,-,N/A,Rain,Light Rain,0,2013-02-11 16:00:00
8:14 AM,-9999,-9999,N/A,-9999,2.0,Calm,Calm,-,N/A,Rain,Light Rain,0,2013-02-11 16:14:00
8:49 AM,-9999,-9999,N/A,-9999,1.5,Calm,Calm,-,N/A,Rain,Light Rain,0,2013-02-11 16:49:00
9:00 AM,41.0,39.2,93,30.33,1.5,Calm,Calm,-,N/A,Rain,Light Rain,0,2013-02-11 17:00:00
9:38 AM,-9999,-9999,N/A,-9999,1.0,Calm,Calm,-,N/A,Rain,Light Rain,0,2013-02-11 17:38:00
10:00 AM,42.8,41.0,93,30.34,1.0,Calm,Calm,-,N/A,Rain,Light Rain,0,2013-02-11 18:00:00
10:23 AM,-9999,-9999,N/A,-9999,3.0,Calm,Calm,-,N/A,Rain,Light Rain,0,2013-02-11 18:23:00
11:00 AM,42.8,42.8,100,30.34,3.0,South,4.6,-,N/A,Rain,Light Rain,190,2013-02-11 19:00:00
11:29 AM,-9999,-9999,N/A,-9999,2.0,South,4.6,-,N/A,,Light Drizzle,180,2013-02-11 19:29:00
12:00 PM,44.6,42.8,93,30.33,2.0,South,4.6,-,N/A,,Light Drizzle,180,2013-02-11 20:00:00
12:16 PM,-9999,-9999,N/A,-9999,3.0,South,4.6,-,N/A,,Light Drizzle,180,2013-02-11 20:16:00
1:00 PM,44.6,42.8,93,30.33,2.0,SSW,3.5,-,N/A,,Light Drizzle,200,2013-02-11 21:00:00
1:20 PM,-9999,-9999,N/A,-9999,1.5,South,3.5,-,N/A,,Light Drizzle,190,2013-02-11 21:20:00
1:52 PM,-9999,-9999,N/A,-9999,1.0,South,4.6,-,N/A,,Light Drizzle,170,2013-02-11 21:52:00
3:00 PM,44.6,42.8,93,30.32,4.0,South,3.5,-,N/A,,Light Drizzle,170,2013-02-11 23:00:00
3:28 PM,-9999,-9999,N/A,-9999,5.0,SSE,4.6,-,N/A,,Overcast,160,2013-02-11 23:28:00
3:52 PM,-9999,-9999,N/A,-9999,1.5,SE,3.5,-,N/A,,Light Drizzle,140,2013-02-11 23:52:00
4:00 PM,44.6,42.8,93,30.32,1.5,SSE,3.5,-,N/A,,Light Drizzle,160,2013-02-12 00:00:00
4:38 PM,-9999,-9999,N/A,-9999,5.0,SSE,3.5,-,N/A,,Overcast,160,2013-02-12 00:38:00
5:00 PM,44.6,42.8,93,30.33,5.0,South,2.3,-,N/A,,Overcast,170,2013-02-12 01:00:00
6:00 PM,44.6,42.8,93,30.33,5.0,South,4.6,-,N/A,,Overcast,170,2013-02-12 02:00:00
7:00 PM,44.6,42.8,93,30.32,10.0,Calm,Calm,-,N/A,,Overcast,0,2013-02-12 03:00:00
7:12 PM,-9999,-9999,N/A,-9999,12.0,Calm,Calm,-,N/A,,Mostly Cloudy,0,2013-02-12 03:12:00
8:00 PM,44.6,42.8,93,30.32,12.0,Calm,Calm,-,N/A,,Mostly Cloudy,0,2013-02-12 04:00:00
9:00 PM,42.8,42.8,100,30.33,12.0,Calm,Calm,-,N/A,,Mostly Cloudy,0,2013-02-12 05:00:00